Location: ActonStarParty
(42.4766°N, 71.4538°W)
Time: 21:56:30
(UTC-05:00)

Daily predictions for brighter satellites

Satellite Brightness Start Highest point End
(mag) Time Altitude Azimuth Time Altitude Azimuth Time Altitude Azimuth
Cosmos 2237 Rocket 2.2 17:08:44 10° SSW 17:14:20 76° ESE 17:19:59 10° NNE
SJ-12 4.3 17:12:44 10° S 17:16:51 74° WSW 17:20:59 10° NNW
Cosmos 2151 3.0 17:13:39 10° S 17:17:45 57° E 17:21:53 10° NNE
YAOGAN 1 2.5 17:13:38 10° SSE 17:17:57 80° ENE 17:22:18 10° N
COSMO-SKYMED 1 3.4 17:14:57 10° NNE 17:18:51 31° E 17:22:43 10° SSE
BREEZE-M DEB (TANK) 3.1 17:17:18 10° SSW 17:19:40 29° SE 17:21:50 10° ENE
Cosmos 1300 2.6 17:16:30 10° N 17:20:20 72° E 17:24:09 10° SSE
Meteor 1-27 4.4 17:15:17 10° N 17:21:01 55° ENE 17:26:43 10° SSE
Thor Agena Rocket 3.6 17:15:56 10° NNE 17:21:11 71° ESE 17:26:19 10° S
AQUARIUS 4.4 17:17:47 10° S 17:22:16 80° WSW 17:26:48 10° NNW
SL-16 R/B 2.8 17:17:42 10° S 17:22:51 38° ESE 17:28:03 10° NE
COSMOS 2428 4.3 17:19:48 10° WSW 17:24:55 33° NW 17:30:03 10° N
Meteor 2-10 4.1 17:20:06 10° N 17:25:09 57° ENE 17:30:20 10° SSE
SPOT 3 Rocket 3.6 17:20:25 10° SSE 17:25:34 86° WSW 17:30:47 10° NNW
Cosmos 44 Rocket 4.4 17:22:01 10° WSW 17:26:55 44° NW 17:31:44 10° NNE
CZ-3A R/B 3.2 17:25:01 10° NW 17:30:11 43° NNE 17:35:07 10° ESE
Cosmos 2297 3.8 17:29:26 10° NNW 17:35:06 60° ENE 17:40:45 10° SE
SL-14 R/B 3.3 17:32:01 10° S 17:35:57 85° W 17:39:58 10° N
FREGAT/IRIS 4.4 17:34:23 10° ESE 17:36:08 14° ENE 17:37:53 10° NNE
Cosmos 1484 Rocket 2.8 17:34:01 10° SSE 17:37:56 71° ENE 17:41:57 10° N
Cosmos 304 Rocket 3.9 17:33:15 10° S 17:37:58 59° ESE 17:42:42 10° NNE
Resurs 01 Rocket 3.3 17:35:48 10° E 17:38:05 14° ENE 17:40:23 10° NNE
Cosmos 1340 Rocket 2.8 17:35:57 10° S 17:39:49 62° E 17:43:42 10° NNE
Cosmos 2279 Rocket 4.0 17:37:20 10° N 17:43:36 77° E 17:49:49 10° SSE
Meteor 1-28 Rocket 3.6 17:41:39 10° NNE 17:45:10 39° E 17:48:40 10° SSE
Lacrosse 4 Rocket 2.4 17:42:23 10° N 17:45:48 25° NE 17:48:48 12° ESE
Cosmos 1151 Rocket 3.9 17:42:15 10° NNW 17:46:26 53° W 17:50:37 10° S
METEOR-M 4.5 17:45:49 10° SE 17:50:49 42° ENE 17:55:51 10° N
IDEFIX/ARIANE 42P 4.3 17:47:43 10° SSW 17:52:32 37° W 17:57:25 10° NNW
Cosmos 1869 4.3 17:50:35 10° NNE 17:53:58 25° ENE 17:57:21 10° SE
Cosmos 540 Rocket 4.4 17:50:00 10° SW 17:55:00 50° WNW 18:00:02 10° N
Aureole 2 Rocket 3.5 17:51:23 10° SW 17:55:07 53° WNW 17:59:10 10° NNE
Tiangong 1 3.5 17:55:48 10° SSE 17:56:24 10° SE 17:57:00 10° SE
NOAA 12 4.2 17:54:29 10° SSE 17:59:34 54° ENE 18:04:43 10° N
USA 215 3.5 17:53:29 11° ESE 17:59:40 51° NNE 18:05:57 10° NW
Cosmos 773 Rocket 4.4 17:55:34 10° S 18:00:23 41° ESE 18:04:53 12° NE
Cosmos 2058 3.5 17:57:53 10° SSW 18:01:55 57° W 18:05:59 10° N
Nadezhda 4 Rocket 4.1 17:57:34 10° SSE 18:03:39 56° E 18:09:49 10° NNE
ATLAS 5 CENTAUR R/B 4.0 18:01:19 10° N 18:04:28 15° NNE 18:05:48 14° NE
Cosmos 1805 Rocket 3.5 18:01:04 10° S 18:05:31 87° E 18:10:01 10° N
Lacrosse 5 3.8 18:02:51 10° NNW 18:05:53 16° N 18:08:06 12° NNE
SKYMED 2 3.7 18:02:41 10° N 18:07:03 77° WNW 18:11:22 10° SSW
Cosmos 2242 Rocket 4.0 18:03:07 10° N 18:07:17 39° ENE 18:11:28 10° SSE
Cosmos 1461 3.1 18:04:37 10° SW 18:08:47 68° NW 18:12:04 15° NNE
Cosmos 1626 2.0 18:10:54 10° S 18:14:38 89° ESE 18:18:25 10° N
Aureole 1 Rocket 4.0 18:11:33 10° S 18:16:54 59° ESE 18:23:56 10° NNE
Sich 1 2.9 18:14:08 10° S 18:18:34 78° E 18:23:01 10° N
Cosmos 2219 Rocket 4.3 18:16:17 10° WSW 18:20:37 22° NW 18:24:57 10° N
Lacrosse 5 rocket 3.9 18:18:23 10° WNW 18:21:14 20° SW 18:24:10 10° S
Cosmos 1356 Rocket 3.3 18:17:58 10° SSW 18:21:58 80° W 18:25:59 10° N
Cosmos 1943 Rocket 4.0 18:19:44 10° NNE 18:21:11 13° NNE 18:21:11 13° NNE
ALOS 2.6 18:19:57 10° SE 18:24:20 42° ENE 18:28:44 10° N
Cosmos 1092 Rocket 4.0 18:19:47 10° S 18:25:59 61° E 18:32:14 10° NNE
Cosmos 2333 Rocket 4.2 18:22:48 10° WSW 18:27:22 25° NW 18:31:59 10° N
Cosmos 1603 3.9 18:22:16 10° S 18:27:37 47° ESE 18:30:06 29° NE
Cosmos 1633 Rocket 3.0 18:24:31 10° S 18:28:55 88° E 18:33:20 10° N
FengYun 1-2 T 4.3 18:25:00 10° SE 18:30:23 54° ENE 18:35:45 10° N
Cosmos 292 Rocket 3.9 18:30:01 10° S 18:34:34 49° ESE 18:35:32 42° ENE
Coronas F rocket 3.2 18:32:39 10° SSW 18:33:36 21° SSW 18:33:36 21° SSW
Cosmos 1455 2.7 18:32:16 10° NNW 18:36:02 61° W 18:39:48 10° S
USA 229 DEB 3.6 18:36:10 10° SSW 18:43:01 80° ESE 18:47:09 27° NE
USA 229 3.6 18:36:16 10° SSW 18:43:06 80° ESE 18:47:12 27° NE
Abrixas 4.3 18:41:00 10° WNW 18:42:57 24° NNW 18:42:57 24° NNW
Cosmos 1184 Rocket 4.0 18:43:51 10° SSW 18:47:02 42° WNW 18:48:43 23° NNW
SJ-6B 3.5 18:44:52 10° S 18:48:53 58° W 18:53:00 10° NNW
Cosmos 2195 Rocket 4.4 18:43:16 10° S 18:49:14 59° E 18:55:16 10° NNE
Spot 2 Rocket 3.3 18:44:24 10° SSE 18:49:24 69° ENE 18:54:26 10° N
Cosmos 1862 Rocket 4.2 18:47:00 10° N 18:49:59 41° NNE 18:49:59 41° NNE
Orbus 7S? 4.5 18:47:31 10° NW 18:51:55 82° NE 19:00:10 17° SE
Iridium 4 Rocket 3.1 18:49:10 10° S 18:53:38 78° W 18:57:11 14° N
SL-19 R/B 4.3 18:50:59 10° SSE 18:56:51 84° WSW 19:02:28 10° NNW
Cosmos 2369 Rocket 2.6 18:56:33 10° NNW 19:00:59 43° NNE 19:00:59 43° NNE
H-2A ROCKET BODY 4.0 18:48:38 10° WSW 19:06:06 33° SSW 19:09:18 22° SSE
SL-16 R/B 3.7 19:01:57 10° WSW 19:07:00 33° NW 19:11:54 11° N
Cosmos 1417 Rocket 4.4 19:07:30 10° N 19:13:16 65° ENE 19:13:16 65° ENE
Resurs 01 Rocket 2.0 19:12:15 34° S 19:14:02 64° WSW 19:18:28 10° NNW
Cosmos 923 Rocket 4.3 19:10:08 10° SSW 19:15:17 62° WNW 19:17:00 40° N
Cosmos 1933 Rocket 4.0 19:12:12 10° SSW 19:16:31 61° W 19:16:31 61° W
Cosmos 1680 Rocket 3.6 19:16:29 10° SSW 19:21:42 71° WNW 19:22:05 68° NW
Cosmos 1655 Rocket 3.9 19:16:33 10° S 19:22:56 81° E 19:24:06 62° NNE
Lacrosse 4 Rocket 3.1 19:20:57 10° NW 19:24:30 29° WSW 19:25:17 27° SW
CZ-4C R/B 3.9 19:19:04 10° NNW 19:23:28 27° NNE 19:23:28 27° NNE
FENGYUN 3A 4.5 19:25:20 10° S 19:30:29 48° W 19:35:43 10° NNW
NOSS 3-1 (C) 3.9 19:28:50 10° SSW 19:32:51 48° SSW 19:32:51 48° SSW
USA 215 3.7 19:40:52 43° S 19:42:37 55° SW 19:49:02 10° NW
Cosmos 1943 4.4 19:38:52 10° SSW 19:41:55 34° SSW 19:41:55 34° SSW
ATLAS 3B R/B 4.4 19:42:49 10° NNW 19:45:53 20° N 19:45:53 20° N
Lacrosse 5 4.2 19:46:01 10° NNW 19:47:19 16° NNW 19:47:19 16° NNW
ATLAS 5 CENTAUR R/B 3.8 19:44:47 10° NNW 19:47:22 26° NNW 19:47:22 26° NNW
Cosmos 1943 Rocket 4.4 20:01:40 10° NNW 20:02:44 16° NNW 20:02:44 16° NNW
